Location: Newark
(34.0131°N, 4.3314°W)
Time: 06:37:30
(UTC+00:00)

Explorer 7 - Pass Details

Date: 21 October 2019
Orbit: 485 x 680 km, 50.3° (Epoch: 18 November)

Event Time Altitude Azimuth Distance (km) Brightness Sun altitude
Rises 16:46:08 0° 319° (NW) 2,603 10.6 9.2°
Reaches altitude 10° 16:48:29 10° 331° (NNW) 1,741 9.6 8.8°
Maximum altitude 16:52:00 30° 34° (NNE) 969 7.8 8.1°
Drops below altitude 10° 16:55:41 10° 96° (E) 1,830 9.0 7.3°
Sets 16:58:12 0° 107° (ESE) 2,762 9.9 6.8°
